Flag for U.S.A. Weather past 2 weeks in Bismarck, North Dakota, U.S.A.

Now
56 °F

Light rain. Overcast.


Feels Like: 55 °F
Forecast: 53 / 63 °F
Wind: 5 mph from Northeast

Location: Bismarck Municipal Airport

Current Time: May 25, 2015 at 2:46:55 AM

Latest Report: May 25, 2015 at 1:52 AM


Visibility: 8 mi

Pressure: 29.87 "Hg

Humidity: 93%

Dew point: 54 °F

Location of BismarckLocation

Historic Weather in Bismarck — Graph

°F

Bismarck temperature yesterday

Maximum temperature yesterday: 68 °F (at 3:52 PM)
Minimum temperature yesterday: 51 °F (at 5:52 AM)
Average temperature yesterday: 61 °F

Past Weeks' High & Low Weather Summary

 TemperatureHumidityPressure
High76 °F (May 22, 3:52 PM)97% (May 14, 5:52 AM)30.51 "Hg (May 14, 5:52 AM)
Low27 °F (May 19, 4:52 AM)18% (May 21, 4:52 PM)29.57 "Hg (May 16, 6:52 PM)
Average51 °F70%30.07 "Hg
* Reported May 10 12:52 AM — May 25 12:52 AM, Bismarck, Weather by CustomWeather, © 2015

Note: Actual official high and low records may vary slightly from our data, if they occured in-between our weather recording intervals... More about our weather records

Advertising

Bismarck weather history for previous 24 hours

 ConditionsComfort  
Time TempWeatherWind HumidityBarometerVisibility
12:52 AM
Mon, May 25
57 °FLight rain. Overcast.6 mph90%29.89 "Hg10 mi
11:52 PM
Sun, May 24
57 °FOvercast.No wind93%29.90 "Hg10 mi
10:52 PM57 °FMostly cloudy.8 mph90%29.91 "Hg10 mi
9:52 PM62 °FOvercast.14 mph73%29.90 "Hg10 mi
8:52 PM63 °FMostly cloudy.6 mph68%29.89 "Hg10 mi
7:52 PM64 °FPartly sunny.6 mph63%29.89 "Hg10 mi
6:52 PM65 °FMostly cloudy.9 mph59%29.90 "Hg10 mi
5:52 PM65 °FMostly cloudy.3 mph68%29.92 "Hg10 mi
4:52 PM68 °FPartly sunny.13 mph53%29.93 "Hg10 mi
3:52 PM68 °FOvercast.10 mph53%29.95 "Hg10 mi
2:52 PM67 °FOvercast.13 mph55%29.97 "Hg10 mi
1:52 PM67 °FOvercast.14 mph53%29.98 "Hg10 mi
12:52 PM67 °FPartly sunny.13 mph55%29.99 "Hg10 mi
11:52 AM67 °FPassing clouds.12 mph57%30.00 "Hg10 mi
10:52 AM65 °FSunny.12 mph63%30.03 "Hg10 mi
9:52 AM62 °FSunny.8 mph70%30.05 "Hg10 mi
8:52 AM60 °FOvercast.10 mph78%30.06 "Hg10 mi
7:52 AM57 °FOvercast.9 mph87%30.06 "Hg10 mi
6:52 AM54 °FOvercast.3 mph90%30.07 "Hg10 mi
5:52 AM51 °FPassing clouds.3 mph96%30.08 "Hg10 mi
4:52 AM55 °FPassing clouds.3 mph87%30.07 "Hg10 mi
3:52 AM56 °FMostly cloudy.No wind87%30.09 "Hg10 mi
2:52 AM56 °FOvercast.5 mph87%30.09 "Hg10 mi
Weather by CustomWeather, © 2015

See weather overviewHow to use our weather pages